Location: G�kdere
(37.0328°N, 30.9000°E)
Time: 21:54:25
(UTC+00:00)

Cosmos 1500 - Pass Details

Date: 03 March 2021
Orbit: 499 x 517 km, 82.5° (Epoch: 18 April)

Event Time Altitude Azimuth Distance (km) Brightness Sun altitude
Rises 17:09:01 0° 194° (SSW) 2,577 6.9 -16.1°
Reaches altitude 10° 17:11:09 10° 199° (SSW) 1,697 6.0 -16.5°
Maximum altitude 17:14:48 57° 278° (W) 590 3.8 -17.2°
Drops below altitude 10° 17:18:29 10° 358° (N) 1,709 5.9 -17.9°
Sets 17:20:39 0° 3° (N) 2,597 6.8 -18.4°
